| time (UTC) | temp F | wind direction | speed MPH | gust MPH | rain 1hr in | rain 24hr in | rain mn in | humidity % | barometer mb |
| 20260906193007 | 61 | 86 | 11.0 | 12.0 | 0.00 | 0.00 | 0.00 | 52 | 1028.2 |
| 20260906192508 | 61 | 81 | 12.0 | 13.0 | 0.00 | 0.00 | 0.00 | 52 | 1028.4 |
| 20260906192007 | 61 | 70 | 10.0 | 12.0 | 0.00 | 0.00 | 0.00 | 52 | 1028.3 |
| 20260906191007 | 61 | 85 | 12.0 | 13.0 | 0.00 | 0.00 | 0.00 | 51 | 1028.3 |
| 20260906190507 | 61 | 81 | 12.0 | 14.0 | 0.00 | 0.00 | 0.00 | 51 | 1028.5 |
| 20260906190008 | 62 | 78 | 14.0 | 14.0 | 0.00 | 0.00 | 0.00 | 51 | 1028.3 |
| 20260906185508 | 61 | 91 | 12.0 | 12.0 | 0.00 | 0.00 | 0.00 | 52 | 1028.4 |
| 20260906185008 | 61 | 91 | 12.0 | 12.0 | 0.00 | 0.00 | 0.00 | 52 | 1028.4 |
| 20260906184508 | 61 | 89 | 11.0 | 11.0 | 0.00 | 0.00 | 0.00 | 52 | 1028.5 |
| 20260906184007 | 61 | 88 | 9.0 | 11.0 | 0.00 | 0.00 | 0.00 | 52 | 1028.3 |
| 20260906183507 | 61 | 89 | 11.0 | 11.0 | 0.00 | 0.00 | 0.00 | 52 | 1028.3 |
| 20260906183007 | 62 | 85 | 10.0 | 12.0 | 0.00 | 0.00 | 0.00 | 51 | 1028.4 |
| 20260906182507 | 61 | 83 | 11.0 | 11.0 | 0.00 | 0.00 | 0.00 | 51 | 1028.2 |
| 20260906182007 | 62 | 74 | 10.0 | 11.0 | 0.00 | 0.00 | 0.00 | 51 | 1028.3 |
| 20260906181507 | 62 | 71 | 9.0 | 11.0 | 0.00 | 0.00 | 0.00 | 50 | 1028.2 |
| 20260906181007 | 63 | 68 | 10.0 | 10.0 | 0.00 | 0.00 | 0.00 | 48 | 1028.3 |
| 20260906180507 | 63 | 74 | 9.0 | 11.0 | 0.00 | 0.00 | 0.00 | 48 | 1028.4 |
| 20260906180007 | 63 | 79 | 10.0 | 10.0 | 0.00 | 0.00 | 0.00 | 48 | 1028.1 |
| 20260906175508 | 63 | 68 | 8.0 | 10.0 | 0.00 | 0.00 | 0.00 | 48 | 1028.2 |
| 20260906175007 | 64 | 69 | 8.0 | 8.0 | 0.00 | 0.00 | 0.00 | 47 | 1028.1 |
| 20260906174507 | 64 | 59 | 8.0 | 9.0 | 0.00 | 0.00 | 0.00 | 46 | 1028.2 |
| 20260906174007 | 64 | 64 | 8.0 | 8.0 | 0.00 | 0.00 | 0.00 | 45 | 1028.1 |
| 20260906173507 | 64 | 76 | 6.0 | 7.0 | 0.00 | 0.00 | 0.00 | 46 | 1028.2 |
| 20260906172508 | 64 | 53 | 6.0 | 8.0 | 0.00 | 0.00 | 0.00 | 45 | 1028.2 |
| 20260906172007 | 64 | 45 | 6.0 | 7.0 | 0.00 | 0.00 | 0.00 | 44 | 1028.3 |
| 20260906171508 | 65 | 43 | 6.0 | 6.0 | 0.00 | 0.00 | 0.00 | 44 | 1028.1 |
| 20260906171007 | 65 | 49 | 5.0 | 5.0 | 0.00 | 0.00 | 0.00 | 45 | 1028.4 |
| 20260906170507 | 65 | 34 | 4.0 | 5.0 | 0.00 | 0.00 | 0.00 | 45 | 1028.3 |
| 20260906170007 | 65 | 25 | 4.0 | 4.0 | 0.00 | 0.00 | 0.00 | 45 | 1028.3 |
| 20260906165507 | 65 | 19 | 4.0 | 4.0 | 0.00 | 0.00 | 0.00 | 44 | 1028.5 |
| 20260906165007 | 65 | 25 | 5.0 | 5.0 | 0.00 | 0.00 | 0.00 | 43 | 1028.5 |
| 20260906164507 | 65 | 11 | 4.0 | 4.0 | 0.00 | 0.00 | 0.00 | 44 | 1028.3 |
| 20260906164007 | 66 | 20 | 4.0 | 4.0 | 0.00 | 0.00 | 0.00 | 45 | 1028.3 |
| 20260906163507 | 66 | 329 | 2.0 | 2.0 | 0.00 | 0.00 | 0.00 | 45 | 1028.4 |
| 20260906163008 | 66 | 3 | 4.0 | 6.0 | 0.00 | 0.00 | 0.00 | 44 | 1028.3 |
| 20260906162507 | 66 | 18 | 5.0 | 5.0 | 0.00 | 0.00 | 0.00 | 43 | 1028.3 |
| 20260906162008 | 66 | 353 | 6.0 | 6.0 | 0.00 | 0.00 | 0.00 | 43 | 1028.5 |
| 20260906161507 | 66 | 7 | 6.0 | 6.0 | 0.00 | 0.00 | 0.00 | 44 | 1028.4 |
| 20260906161007 | 66 | 14 | 1.0 | 2.0 | 0.00 | 0.00 | 0.00 | 45 | 1028.3 |
| 20260906160507 | 67 | 26 | 1.0 | 2.0 | 0.00 | 0.00 | 0.00 | 43 | 1028.3 |
| 20260906160008 | 66 | 18 | 1.0 | 2.0 | 0.00 | 0.00 | 0.00 | 43 | 1028.5 |
| 20260906155506 | 66 | 9 | 5.0 | 6.0 | 0.00 | 0.00 | 0.00 | 43 | 1028.7 |
| 20260906155007 | 67 | 341 | 3.0 | 5.0 | 0.00 | 0.00 | 0.00 | 43 | 1028.6 |
| 20260906154508 | 66 | 1 | 4.0 | 5.0 | 0.00 | 0.00 | 0.00 | 42 | 1028.6 |
| 20260906154008 | 66 | 4 | 3.0 | 4.0 | 0.00 | 0.00 | 0.00 | 42 | 1028.6 |
| 20260906153508 | 67 | 336 | 2.0 | 4.0 | 0.00 | 0.00 | 0.00 | 41 | 1028.7 |
| 20260906152508 | 67 | 331 | 3.0 | 3.0 | 0.00 | 0.00 | 0.00 | 43 | 1028.5 |
| 20260906152007 | 67 | 1 | 2.0 | 2.0 | 0.00 | 0.00 | 0.00 | 43 | 1028.5 |
| 20260906151507 | 66 | 350 | 4.0 | 5.0 | 0.00 | 0.00 | 0.00 | 43 | 1028.5 |
| 20260906151008 | 68 | 326 | 2.0 | 3.0 | 0.00 | 0.00 | 0.00 | 41 | 1028.5 |
| 20260906150507 | 67 | 319 | 4.0 | 5.0 | 0.00 | 0.00 | 0.00 | 43 | 1028.7 |
| 20260906150009 | 67 | 310 | 7.0 | 9.0 | 0.00 | 0.00 | 0.00 | 41 | 1028.5 |
| 20260906145509 | 66 | 320 | 5.0 | 9.0 | 0.00 | 0.00 | 0.00 | 42 | 1028.6 |
| 20260906145007 | 66 | 341 | 7.0 | 9.0 | 0.00 | 0.00 | 0.00 | 41 | 1028.6 |
| 20260906144508 | 67 | 288 | 8.0 | 10.0 | 0.00 | 0.00 | 0.00 | 40 | 1028.6 |
| 20260906144007 | 66 | 311 | 5.0 | 8.0 | 0.00 | 0.00 | 0.00 | 42 | 1028.6 |
| 20260906143507 | 66 | 319 | 5.0 | 7.0 | 0.00 | 0.00 | 0.00 | 41 | 1028.9 |
| 20260906143007 | 67 | 345 | 5.0 | 5.0 | 0.00 | 0.00 | 0.00 | 41 | 1028.9 |
| 20260906142508 | 66 | 300 | 6.0 | 9.0 | 0.00 | 0.00 | 0.00 | 43 | 1028.6 |
| 20260906142006 | 66 | 335 | 10.0 | 11.0 | 0.00 | 0.00 | 0.00 | 42 | 1029.0 |
| 20260906141507 | 66 | 3 | 6.0 | 8.0 | 0.00 | 0.00 | 0.00 | 43 | 1028.8 |
| 20260906141008 | 66 | 334 | 4.0 | 5.0 | 0.00 | 0.00 | 0.00 | 43 | 1028.9 |
| 20260906140508 | 67 | 315 | 6.0 | 6.0 | 0.00 | 0.00 | 0.00 | 43 | 1028.6 |
| 20260906140006 | 65 | 355 | 6.0 | 8.0 | 0.00 | 0.00 | 0.00 | 44 | 1028.8 |
| 20260906135507 | 66 | 318 | 9.0 | 9.0 | 0.00 | 0.00 | 0.00 | 43 | 1028.8 |
| 20260906135007 | 65 | 322 | 5.0 | 9.0 | 0.00 | 0.00 | 0.00 | 43 | 1028.8 |
| 20260906134508 | 65 | 322 | 5.0 | 9.0 | 0.00 | 0.00 | 0.00 | 43 | 1028.7 |
| 20260906134008 | 66 | 321 | 6.0 | 9.0 | 0.00 | 0.00 | 0.00 | 44 | 1028.7 |
| 20260906133507 | 65 | 305 | 6.0 | 7.0 | 0.00 | 0.00 | 0.00 | 45 | 1029.0 |
| 20260906132508 | 66 | 347 | 7.0 | 10.0 | 0.00 | 0.00 | 0.00 | 44 | 1028.8 |
| 20260906132007 | 65 | 258 | 1.0 | 4.0 | 0.00 | 0.00 | 0.00 | 46 | 1028.8 |
| 20260906131507 | 66 | 239 | 7.0 | 9.0 | 0.00 | 0.00 | 0.00 | 45 | 1028.7 |
| 20260906131007 | 65 | 275 | 9.0 | 11.0 | 0.00 | 0.00 | 0.00 | 47 | 1028.8 |
| 20260906130508 | 65 | 301 | 5.0 | 6.0 | 0.00 | 0.00 | 0.00 | 45 | 1028.9 |
| 20260906130008 | 65 | 297 | 4.0 | 6.0 | 0.00 | 0.00 | 0.00 | 46 | 1028.8 |
| 20260906125508 | 65 | 300 | 6.0 | 6.0 | 0.00 | 0.00 | 0.00 | 46 | 1028.9 |
| 20260906125008 | 64 | 309 | 7.0 | 10.0 | 0.00 | 0.00 | 0.00 | 47 | 1028.9 |
| 20260906124507 | 64 | 290 | 14.0 | 15.0 | 0.00 | 0.00 | 0.00 | 46 | 1028.9 |
| 20260906124007 | 64 | 350 | 3.0 | 6.0 | 0.00 | 0.00 | 0.00 | 46 | 1029.1 |
| 20260906123508 | 63 | 5 | 5.0 | 7.0 | 0.00 | 0.00 | 0.00 | 47 | 1028.8 |
| 20260906122508 | 65 | 289 | 3.0 | 4.0 | 0.00 | 0.00 | 0.00 | 47 | 1029.2 |
| 20260906122007 | 63 | 296 | 6.0 | 6.0 | 0.00 | 0.00 | 0.00 | 48 | 1029.0 |
| 20260906121507 | 63 | 348 | 9.0 | 10.0 | 0.00 | 0.00 | 0.00 | 48 | 1029.0 |
| 20260906121007 | 63 | 285 | 9.0 | 11.0 | 0.00 | 0.00 | 0.00 | 49 | 1029.1 |
| 20260906120507 | 63 | 300 | 9.0 | 13.0 | 0.00 | 0.00 | 0.00 | 48 | 1029.1 |
| 20260906120007 | 63 | 285 | 14.0 | 16.0 | 0.00 | 0.00 | 0.00 | 48 | 1029.0 |
| 20260906115508 | 63 | 303 | 10.0 | 13.0 | 0.00 | 0.00 | 0.00 | 48 | 1029.1 |
| 20260906115007 | 64 | 317 | 7.0 | 10.0 | 0.00 | 0.00 | 0.00 | 48 | 1028.8 |
| 20260906114507 | 63 | 348 | 3.0 | 3.0 | 0.00 | 0.00 | 0.00 | 50 | 1028.9 |
| 20260906114007 | 62 | 311 | 8.0 | 10.0 | 0.00 | 0.00 | 0.00 | 49 | 1029.0 |
| 20260906113507 | 62 | 311 | 8.0 | 10.0 | 0.00 | 0.00 | 0.00 | 49 | 1029.2 |
| 20260906113007 | 62 | 295 | 8.0 | 10.0 | 0.00 | 0.00 | 0.00 | 50 | 1029.2 |
| 20260906112508 | 62 | 298 | 11.0 | 11.0 | 0.00 | 0.00 | 0.00 | 49 | 1029.1 |
| 20260906112008 | 61 | 308 | 16.0 | 17.0 | 0.00 | 0.00 | 0.00 | 50 | 1029.1 |
| 20260906111507 | 61 | 313 | 8.0 | 8.0 | 0.00 | 0.00 | 0.00 | 53 | 1029.4 |
| 20260906111008 | 61 | 299 | 11.0 | 11.0 | 0.00 | 0.00 | 0.00 | 53 | 1029.3 |
| 20260906110507 | 61 | 297 | 15.0 | 16.0 | 0.00 | 0.00 | 0.00 | 52 | 1029.3 |
| 20260906110007 | 62 | 284 | 8.0 | 13.0 | 0.00 | 0.00 | 0.00 | 53 | 1029.2 |
| 20260906105507 | 62 | 312 | 4.0 | 4.0 | 0.00 | 0.00 | 0.00 | 52 | 1029.4 |
| 20260906105007 | 61 | 293 | 11.0 | 12.0 | 0.00 | 0.00 | 0.00 | 54 | 1029.6 |
| 20260906104507 | 60 | 304 | 3.0 | 6.0 | 0.00 | 0.00 | 0.00 | 54 | 1029.6 |
| 20260906104007 | 62 | 322 | 8.0 | 12.0 | 0.00 | 0.00 | 0.00 | 52 | 1029.4 |
| 20260906103508 | 61 | 346 | 14.0 | 15.0 | 0.00 | 0.00 | 0.00 | 52 | 1029.6 |
| 20260906103007 | 61 | 324 | 9.0 | 14.0 | 0.00 | 0.00 | 0.00 | 53 | 1029.7 |
| 20260906102507 | 61 | 278 | 12.0 | 13.0 | 0.00 | 0.00 | 0.00 | 52 | 1029.7 |
| 20260906102007 | 61 | 302 | 11.0 | 13.0 | 0.00 | 0.00 | 0.00 | 51 | 1029.5 |
| 20260906101506 | 60 | 303 | 13.0 | 17.0 | 0.00 | 0.00 | 0.00 | 53 | 1029.7 |
| 20260906101008 | 59 | 303 | 8.0 | 10.0 | 0.00 | 0.00 | 0.00 | 56 | 1029.8 |
| 20260906100508 | 60 | 301 | 13.0 | 15.0 | 0.00 | 0.00 | 0.00 | 53 | 1029.6 |
| 20260906100007 | 61 | 261 | 6.0 | 8.0 | 0.00 | 0.00 | 0.00 | 56 | 1029.5 |
| 20260906095507 | 59 | 300 | 7.0 | 8.0 | 0.00 | 0.00 | 0.00 | 58 | 1029.6 |
| 20260906095007 | 60 | 281 | 9.0 | 9.0 | 0.00 | 0.00 | 0.00 | 56 | 1029.5 |
| 20260906094507 | 60 | 5 | 6.0 | 6.0 | 0.00 | 0.00 | 0.00 | 54 | 1029.6 |
| 20260906094007 | 59 | 341 | 8.0 | 8.0 | 0.00 | 0.00 | 0.00 | 54 | 1029.7 |
| 20260906093507 | 59 | 313 | 5.0 | 6.0 | 0.00 | 0.00 | 0.00 | 57 | 1029.6 |
| 20260906093007 | 59 | 304 | 13.0 | 13.0 | 0.00 | 0.00 | 0.00 | 60 | 1029.4 |
| 20260906092508 | 59 | 295 | 16.0 | 18.0 | 0.00 | 0.00 | 0.00 | 59 | 1029.6 |
| 20260906092007 | 60 | 297 | 5.0 | 7.0 | 0.00 | 0.00 | 0.00 | 58 | 1029.6 |
| 20260906091508 | 59 | 300 | 15.0 | 16.0 | 0.00 | 0.00 | 0.00 | 59 | 1029.6 |
| 20260906091007 | 59 | 338 | 8.0 | 10.0 | 0.00 | 0.00 | 0.00 | 58 | 1029.7 |
| 20260906090507 | 59 | 300 | 4.0 | 6.0 | 0.00 | 0.00 | 0.00 | 58 | 1029.6 |
| 20260906090007 | 58 | 310 | 9.0 | 13.0 | 0.00 | 0.00 | 0.00 | 60 | 1029.5 |
| 20260906085507 | 58 | 299 | 18.0 | 18.0 | 0.00 | 0.00 | 0.00 | 59 | 1029.6 |
| 20260906085007 | 58 | 308 | 12.0 | 17.0 | 0.00 | 0.00 | 0.00 | 62 | 1029.5 |
| 20260906084508 | 58 | 306 | 8.0 | 11.0 | 0.00 | 0.00 | 0.00 | 62 | 1029.4 |
| 20260906084007 | 58 | 307 | 12.0 | 17.0 | 0.00 | 0.00 | 0.00 | 61 | 1029.5 |
| 20260906083507 | 59 | 306 | 5.0 | 9.0 | 0.00 | 0.00 | 0.00 | 63 | 1029.5 |
| 20260906083007 | 58 | 322 | 7.0 | 11.0 | 0.00 | 0.00 | 0.00 | 61 | 1029.4 |
| 20260906082507 | 58 | 321 | 6.0 | 9.0 | 0.00 | 0.00 | 0.00 | 63 | 1029.2 |
| 20260906082007 | 30 | 0 | 0.0 | 0.0 | 0.00 | 0.00 | 0.00 | 100 | 1029.3 |
| 20260906081508 | 30 | 0 | 0.0 | 0.0 | 0.00 | 0.00 | 0.00 | 100 | 1029.3 |
| 20260906081007 | 30 | 0 | 0.0 | 0.0 | 0.00 | 0.00 | 0.00 | 100 | 1029.0 |
| 20260906080508 | 30 | 0 | 0.0 | 0.0 | 0.00 | 0.00 | 0.00 | 100 | 1029.1 |
| 20260906080008 | 30 | 0 | 0.0 | 0.0 | 0.00 | 0.00 | 0.00 | 100 | 1028.9 |
| 20260906075507 | 30 | 0 | 0.0 | 0.0 | 0.00 | 0.00 | 0.00 | 100 | 1029.0 |
| 20260906075007 | 30 | 0 | 0.0 | 0.0 | 0.00 | 0.00 | 0.00 | 100 | 1029.1 |
| 20260906074508 | 30 | 0 | 0.0 | 0.0 | 0.00 | 0.00 | 0.00 | 100 | 1028.7 |
| 20260906074008 | 30 | 0 | 0.0 | 0.0 | 0.00 | 0.00 | 0.00 | 100 | 1028.8 |
| 20260906073507 | 30 | 0 | 0.0 | 0.0 | 0.00 | 0.00 | 0.00 | 100 | 1028.6 |
| 20260906073008 | 57 | 322 | 5.0 | 5.0 | 0.00 | 0.00 | 0.00 | 73 | 1028.5 |
| 20260906072508 | 57 | 322 | 5.0 | 5.0 | 0.00 | 0.00 | 0.00 | 73 | 1028.7 |
| 20260906072007 | 56 | 301 | 8.0 | 9.0 | 0.00 | 0.00 | 0.00 | 72 | 1028.6 |
| 20260906071507 | 56 | 293 | 9.0 | 10.0 | 0.00 | 0.00 | 0.00 | 73 | 1028.7 |
| 20260906071007 | 55 | 290 | 9.0 | 12.0 | 0.00 | 0.00 | 0.00 | 74 | 1028.4 |
| 20260906070507 | 55 | 273 | 5.0 | 8.0 | 0.00 | 0.00 | 0.00 | 76 | 1028.4 |
| 20260906070008 | 55 | 264 | 4.0 | 6.0 | 0.00 | 0.00 | 0.00 | 76 | 1028.3 |
| 20260906065507 | 55 | 252 | 7.0 | 7.0 | 0.00 | 0.00 | 0.00 | 77 | 1028.3 |
| 20260906065008 | 54 | 252 | 7.0 | 8.0 | 0.00 | 0.00 | 0.00 | 78 | 1028.2 |
| 20260906064507 | 54 | 259 | 6.0 | 7.0 | 0.00 | 0.00 | 0.00 | 79 | 1028.3 |
| 20260906064007 | 54 | 262 | 8.0 | 8.0 | 0.00 | 0.00 | 0.00 | 79 | 1028.2 |
| 20260906063508 | 53 | 260 | 6.0 | 7.0 | 0.00 | 0.00 | 0.00 | 79 | 1028.1 |
| 20260906063007 | 53 | 263 | 6.0 | 8.0 | 0.00 | 0.00 | 0.00 | 78 | 1028.3 |
| 20260906062507 | 53 | 246 | 9.0 | 10.0 | 0.00 | 0.00 | 0.00 | 78 | 1028.1 |
| 20260906062008 | 54 | 243 | 8.0 | 9.0 | 0.00 | 0.00 | 0.00 | 78 | 1028.1 |
| 20260906061507 | 54 | 258 | 7.0 | 8.0 | 0.00 | 0.00 | 0.00 | 78 | 1028.0 |
| 20260906061008 | 53 | 253 | 8.0 | 10.0 | 0.00 | 0.00 | 0.00 | 78 | 1027.8 |
| 20260906060507 | 53 | 258 | 10.0 | 10.0 | 0.00 | 0.00 | 0.00 | 78 | 1027.6 |
| 20260906060008 | 53 | 256 | 11.0 | 12.0 | 0.00 | 0.00 | 0.00 | 78 | 1027.7 |
| 20260906055507 | 53 | 253 | 11.0 | 12.0 | 0.00 | 0.00 | 0.00 | 78 | 1027.7 |
| 20260906055008 | 53 | 253 | 11.0 | 12.0 | 0.00 | 0.00 | 0.00 | 78 | 1027.6 |
| 20260906054507 | 53 | 251 | 10.0 | 12.0 | 0.00 | 0.00 | 0.00 | 78 | 1027.6 |
| 20260906054007 | 53 | 261 | 10.0 | 12.0 | 0.00 | 0.00 | 0.00 | 78 | 1027.3 |
| 20260906053507 | 53 | 264 | 9.0 | 10.0 | 0.00 | 0.00 | 0.00 | 78 | 1027.7 |
| 20260906053007 | 53 | 251 | 11.0 | 12.0 | 0.00 | 0.00 | 0.00 | 78 | 1027.3 |
| 20260906052508 | 53 | 248 | 9.0 | 10.0 | 0.00 | 0.00 | 0.00 | 79 | 1027.3 |
| 20260906052007 | 53 | 256 | 11.0 | 11.0 | 0.00 | 0.00 | 0.00 | 79 | 1027.4 |
| 20260906051507 | 53 | 255 | 10.0 | 11.0 | 0.00 | 0.00 | 0.00 | 78 | 1027.2 |
| 20260906051007 | 53 | 263 | 11.0 | 11.0 | 0.00 | 0.00 | 0.00 | 78 | 1027.3 |
| 20260906050506 | 53 | 265 | 10.0 | 11.0 | 0.00 | 0.00 | 0.00 | 77 | 1027.1 |
| 20260906050007 | 53 | 257 | 11.0 | 12.0 | 0.00 | 0.00 | 0.00 | 77 | 1027.0 |
| 20260906045507 | 53 | 256 | 11.0 | 12.0 | 0.00 | 0.00 | 0.00 | 78 | 1027.2 |
| 20260906045008 | 53 | 252 | 10.0 | 10.0 | 0.00 | 0.00 | 0.00 | 78 | 1027.3 |
| 20260906044508 | 53 | 255 | 11.0 | 13.0 | 0.00 | 0.00 | 0.00 | 79 | 1027.1 |
| 20260906044008 | 53 | 255 | 11.0 | 13.0 | 0.00 | 0.00 | 0.00 | 79 | 1027.2 |
| 20260906013508 | 30 | 0 | 0.0 | 0.0 | 0.00 | 0.00 | 0.00 | 100 | 1025.9 |
| 20260906013007 | 30 | 0 | 0.0 | 0.0 | 0.00 | 0.00 | 0.00 | 100 | 1025.9 |
| 20260906012508 | 30 | 0 | 0.0 | 0.0 | 0.00 | 0.00 | 0.00 | 100 | 1026.2 |
| 20260906012007 | 30 | 0 | 0.0 | 0.0 | 0.00 | 0.00 | 0.00 | 100 | 1026.1 |
| 20260906011507 | 30 | 0 | 0.0 | 0.0 | 0.00 | 0.00 | 0.00 | 100 | 1025.8 |
| 20260906011009 | 30 | 0 | 0.0 | 0.0 | 0.00 | 0.00 | 0.00 | 100 | 1026.0 |
| 20260906010508 | 30 | 0 | 0.0 | 0.0 | 0.00 | 0.00 | 0.00 | 100 | 1026.1 |
| 20260906010007 | 30 | 0 | 0.0 | 0.0 | 0.00 | 0.00 | 0.00 | 100 | 1026.1 |
| 20260906005507 | 30 | 0 | 0.0 | 0.0 | 0.00 | 0.00 | 0.00 | 100 | 1025.8 |
| 20260906005007 | 30 | 0 | 0.0 | 0.0 | 0.00 | 0.00 | 0.00 | 100 | 1025.8 |
| 20260906004508 | 58 | 318 | 8.0 | 17.0 | 0.00 | 0.00 | 0.00 | 67 | 1026.1 |
| 20260906004007 | 58 | 318 | 8.0 | 17.0 | 0.00 | 0.00 | 0.00 | 67 | 1025.9 |
| 20260906003507 | 30 | 0 | 0.0 | 0.0 | 0.00 | 0.00 | 0.00 | 100 | 1026.0 |
| 20260906003007 | 30 | 0 | 0.0 | 0.0 | 0.00 | 0.00 | 0.00 | 100 | 1026.1 |
| 20260906002508 | 30 | 0 | 0.0 | 0.0 | 0.00 | 0.00 | 0.00 | 100 | 1026.0 |
| 20260906002008 | 30 | 0 | 0.0 | 0.0 | 0.00 | 0.00 | 0.00 | 100 | 1026.1 |
| 20260906001507 | 30 | 0 | 0.0 | 0.0 | 0.00 | 0.00 | 0.00 | 100 | 1025.9 |
| 20260906001008 | 30 | 0 | 0.0 | 0.0 | 0.00 | 0.00 | 0.00 | 100 | 1026.0 |
| 20260906000507 | 30 | 68 | 87.0 | 17.0 | 0.00 | 0.00 | 0.00 | 99 | 1025.9 |
| 20260906000008 | 30 | 68 | 87.0 | 17.0 | 0.00 | 0.00 | 0.00 | 99 | 1025.8 |
| 20260905235507 | 30 | 0 | 0.0 | 0.0 | 0.00 | 0.00 | 0.00 | 100 | 1025.8 |
| 20260905235007 | 30 | 0 | 0.0 | 0.0 | 0.00 | 0.00 | 0.00 | 100 | 1025.6 |
| 20260905234509 | 59 | 290 | 13.0 | 14.0 | 0.00 | 0.00 | 0.00 | 63 | 1025.6 |
| 20260905234008 | 59 | 290 | 13.0 | 14.0 | 0.00 | 0.00 | 0.00 | 63 | 1025.8 |
| 20260905233507 | 30 | 0 | 0.0 | 0.0 | 0.00 | 0.00 | 0.00 | 100 | 1025.6 |
| 20260905233007 | 30 | 0 | 0.0 | 0.0 | 0.00 | 0.00 | 0.00 | 100 | 1025.5 |
| 20260905232507 | 30 | 0 | 0.0 | 0.0 | 0.00 | 0.00 | 0.00 | 100 | 1025.7 |
| 20260905232008 | 30 | 0 | 0.0 | 0.0 | 0.00 | 0.00 | 0.00 | 100 | 1025.5 |
| 20260905231507 | 59 | 296 | 16.0 | 18.0 | 0.00 | 0.00 | 0.00 | 60 | 1025.6 |
| 20260905231008 | 59 | 296 | 16.0 | 18.0 | 0.00 | 0.00 | 0.00 | 60 | 1025.8 |
| 20260905230507 | 59 | 305 | 11.0 | 16.0 | 0.00 | 0.00 | 0.00 | 60 | 1025.4 |
| 20260905230007 | 30 | 0 | 0.0 | 0.0 | 0.00 | 0.00 | 0.00 | 100 | 1025.6 |
| 20260905225507 | 30 | 0 | 0.0 | 0.0 | 0.00 | 0.00 | 0.00 | 100 | 1025.6 |
| 20260905225007 | 30 | 0 | 0.0 | 0.0 | 0.00 | 0.00 | 0.00 | 100 | 1025.3 |
| 20260905224507 | 30 | 0 | 0.0 | 0.0 | 0.00 | 0.00 | 0.00 | 100 | 1025.4 |
| 20260905224007 | 60 | 274 | 10.0 | 12.0 | 0.00 | 0.00 | 0.00 | 58 | 1025.4 |
| 20260905223507 | 60 | 274 | 10.0 | 12.0 | 0.00 | 0.00 | 0.00 | 58 | 1025.4 |
| 20260905223007 | 60 | 289 | 13.0 | 14.0 | 0.00 | 0.00 | 0.00 | 57 | 1025.2 |
| 20260905222507 | 60 | 305 | 14.0 | 15.0 | 0.00 | 0.00 | 0.00 | 57 | 1025.5 |
| 20260905222007 | 30 | 0 | 0.0 | 0.0 | 0.00 | 0.00 | 0.00 | 100 | 1025.5 |
| 20260905221508 | 30 | 0 | 0.0 | 0.0 | 0.00 | 0.00 | 0.00 | 100 | 1025.4 |
| 20260905221007 | 30 | 0 | 0.0 | 0.0 | 0.00 | 0.00 | 0.00 | 100 | 1025.4 |
| 20260905220507 | 30 | 0 | 0.0 | 0.0 | 0.00 | 0.00 | 0.00 | 100 | 1025.5 |
| 20260905220008 | 60 | 288 | 10.0 | 14.0 | 0.00 | 0.00 | 0.00 | 56 | 1025.4 |
| 20260905215507 | 60 | 288 | 10.0 | 14.0 | 0.00 | 0.00 | 0.00 | 56 | 1025.4 |
| 20260905215008 | 60 | 289 | 15.0 | 16.0 | 0.00 | 0.00 | 0.00 | 56 | 1025.3 |
| 20260905214508 | 61 | 290 | 11.0 | 12.0 | 0.00 | 0.00 | 0.00 | 56 | 1025.2 |
| 20260905214007 | 61 | 291 | 16.0 | 17.0 | 0.00 | 0.00 | 0.00 | 55 | 1025.3 |
| 20260905213507 | 61 | 300 | 11.0 | 14.0 | 0.00 | 0.00 | 0.00 | 56 | 1025.4 |
| 20260905213007 | 61 | 290 | 18.0 | 19.0 | 0.00 | 0.00 | 0.00 | 55 | 1025.3 |
| 20260905212507 | 61 | 295 | 16.0 | 17.0 | 0.00 | 0.00 | 0.00 | 55 | 1025.4 |
| 20260905212008 | 61 | 297 | 18.0 | 19.0 | 0.00 | 0.00 | 0.00 | 54 | 1025.1 |
| 20260905211507 | 61 | 298 | 17.0 | 18.0 | 0.00 | 0.00 | 0.00 | 54 | 1025.1 |
| 20260905211007 | 61 | 295 | 14.0 | 17.0 | 0.00 | 0.00 | 0.00 | 54 | 1024.8 |
| 20260905210507 | 62 | 295 | 20.0 | 22.0 | 0.00 | 0.00 | 0.00 | 53 | 1024.9 |
| 20260905210007 | 61 | 288 | 17.0 | 19.0 | 0.00 | 0.00 | 0.00 | 54 | 1025.0 |
| 20260905205507 | 61 | 298 | 13.0 | 15.0 | 0.00 | 0.00 | 0.00 | 54 | 1025.0 |
| 20260905205007 | 61 | 289 | 18.0 | 19.0 | 0.00 | 0.00 | 0.00 | 54 | 1024.8 |
| 20260905204507 | 61 | 292 | 15.0 | 16.0 | 0.00 | 0.00 | 0.00 | 54 | 1024.8 |
| 20260905204007 | 62 | 291 | 12.0 | 17.0 | 0.00 | 0.00 | 0.00 | 53 | 1024.6 |
| 20260905203507 | 62 | 298 | 17.0 | 20.0 | 0.00 | 0.00 | 0.00 | 52 | 1024.7 |
| 20260905203008 | 62 | 298 | 17.0 | 20.0 | 0.00 | 0.00 | 0.00 | 52 | 1024.4 |
| 20260905202507 | 62 | 294 | 19.0 | 21.0 | 0.00 | 0.00 | 0.00 | 52 | 1024.5 |
| 20260905202007 | 30 | 0 | 0.0 | 0.0 | 0.00 | 0.00 | 0.00 | 100 | 1024.6 |
| 20260905201508 | 63 | 297 | 18.0 | 23.0 | 0.00 | 0.00 | 0.00 | 51 | 1024.4 |
| 20260905201007 | 63 | 297 | 18.0 | 23.0 | 0.00 | 0.00 | 0.00 | 51 | 1024.4 |
| 20260905200507 | 63 | 293 | 18.0 | 20.0 | 0.00 | 0.00 | 0.00 | 51 | 1024.3 |
| 20260905200007 | 63 | 295 | 16.0 | 23.0 | 0.00 | 0.00 | 0.00 | 51 | 1024.4 |
| 20260905195508 | 30 | 0 | 0.0 | 0.0 | 0.00 | 0.00 | 0.00 | 100 | 1024.3 |
| 20260905195008 | 63 | 281 | 22.0 | 24.0 | 0.00 | 0.00 | 0.00 | 50 | 1024.2 |
| 20260905194508 | 63 | 281 | 22.0 | 24.0 | 0.00 | 0.00 | 0.00 | 50 | 1024.0 |
| 20260905194007 | 63 | 285 | 18.0 | 23.0 | 0.00 | 0.00 | 0.00 | 50 | 1024.1 |
| 20260905193508 | 63 | 289 | 22.0 | 23.0 | 0.00 | 0.00 | 0.00 | 50 | 1023.9 |